Retour au catalogue

TIANQI 37

ActifCommunicationsLEO
NORAD 67476·PAYLOAD·🇨🇳 China

Lancé Jan 15, 2026 depuis Yellow Sea Launch Area

Loading…

Prochains Passages (prochaines 24 heures)

TLE

FraisSource: Space-Track

Époque: Sep 14, 2026, 18:54 UTC

1 67476U 26010A   26257.78781133 -.00000005  00000-0  84514-4 0  9991
2 67476  44.9830  43.0614 0010735  30.4389 329.7065 13.99188709 33947

Suivez TIANQI 37 en temps réel avec AllMySat

Download on the App Store